OpenBCM V1.13 (Linux)

Packet Radio Mailbox

DB0FHN

[JN59NK Nuernberg]

 Login: GUEST





  
LU1HVK > KEP      29.08.19 20:34l 244 Lines 12026 Bytes #999 (0) @ WW
BID : 30602_LU1HVK
Read: DJ6UX GUEST
Subj: TLE 29 08
Path: DB0FHN<DB0BLO<DB0ERF<OK0NAG<F3KT<OK0NBR<SR8BBS<SR6DWH<SR6BBC<SR9ZAA<
      VE2PKT<N3HYM<LU3DVN<LU9HGS<LU1HVK
Sent: 190829/1602Z 30602@LU1HVK.2594.CBA.ARG.SA LinBPQ6.0.18

                         _    _   _ _ _   ___     ___  __
                        | |  | | | / | | | \ \   / / |/ /
                        | |  | | | | | |_| |\ \ / /| ' /
                        | |__| |_| | |  _  | \ V / | . \
                        |_____\___/|_|_| |_|  \_/  |_|\_\

     BBS/NODO - CORDOBA (LEONES-FF87UH) - LU1HVK-4 NODO - LU1HVK-3 APRS

+----------------------------------------------------------------------------+
OSCAR 7
1  7530U 74089B   19241.38834466 -.00000043  00000-0  13457-4 0  9994
2  7530 101.7508 208.3326 0011825 207.5543 307.4055 12.53639575 49504
OSCAR 11 (UoSAT 2)
1 14781U 84021B   19240.60905809  .00000026  00000-0  93002-5 0  9996
2 14781  97.6083 261.9611 0010068  87.6410 272.5957 14.83102287909273
OSCAR 19 (LUSAT)
1 20442U 90005G   19240.82283067 -.00000032 +00000-0 +45301-5 0  9992
2 20442 098.6518 182.7171 0010819 303.4949 056.5200 14.32931178546506
EYESAT A
1 22825U 93061C   19240.93579358 -.00000012 +00000-0 +13511-4 0  9992
2 22825 098.9082 231.2144 0008957 145.3339 214.8428 14.30065056351863
ITAMSAT
1 22826U 93061D   19241.41051693 -.00000011  00000-0  13770-4 0  9990
2 22826  98.9023 231.6827 0009686 133.8907 226.3076 14.30398950352404
RADIO ROSTO
1 23439U 94085A   19240.91189450 -.00000050 +00000-0 -22566-3 0  9991
2 23439 064.8198 000.9511 0145810 099.4259 262.3180 11.27568442015921
JAS 2
1 24278U 96046B   19240.90697437 -.00000027 +00000-0 +66353-5 0  9997
2 24278 098.5477 024.6819 0351182 055.4798 307.8975 13.53093055137186
TECHSAT 1B
1 25397U 98043D   19240.81401135 -.00000033 +00000-0 +47896-5 0  9995
2 25397 098.6914 180.1076 0001511 143.1463 216.9820 14.23669455097771
ISS (ZARYA)
1 25544U 98067A   19241.56730956  .00001561  00000-0  34916-4 0  9998
2 25544  51.6448 357.2644 0007910 341.7652  57.7700 15.50399545186643
PCSAT
1 26931U 01043C   19240.88302018 -.00000063  00000-0  75871-5 0  9998
2 26931  67.0512 179.9713 0007477 273.3595  86.6650 14.30550392935156
SAUDISAT 1C
1 27607U 02058C   19241.18429881 -.00000069  00000-0  11235-4 0  9997
2 27607  64.5546 191.0151 0078236 242.7486 116.5631 14.75567081897585
CUTE-1
1 27844U 03031E   19240.92159700 +.00000038 +00000-0 +36690-4 0  9990
2 27844 098.6848 248.0711 0009785 178.1353 181.9863 14.22191414838374
CUBESAT XI 4
1 27848U 03031J   19241.00440645  .00000029  00000-0  32871-4 0  9992
2 27848  98.6925 248.6679 0009442 189.6087 170.4911 14.21785044838277
MOZHAYETS 4
1 27939U 03042A   19241.40293308  .00000068  00000-0  20791-4 0  9992
2 27939  98.0507  15.8613 0012821 195.0190 165.0652 14.66798558851057
CUBESAT XI 5
1 28895U 05043F   19240.87839156 +.00000072 +00000-0 +22625-4 0  9997
2 28895 097.9690 021.2086 0018002 124.7275 235.5626 14.63685021737666
CUTE-1.7+APD II
1 32785U 08021C   19241.15242915  .00000123  00000-0  18852-4 0  9996
2 32785  97.5527 237.5062 0013909  32.0508 328.1552 14.88334998614315
DELFI C3
1 32789U 08021G   19240.73072648 +.00000684 +00000-0 +49593-4 0  9995
2 32789 097.4592 288.2347 0010793 237.5257 122.4928 15.07068505617562
SEEDS
1 32791U 08021J   19240.98331971  .00000117  00000-0  17186-4 0  9996
2 32791  97.5297 243.3878 0013509   7.6889 352.4535 14.90855872614731
YUBELEINY
1 32953U 08025A   19241.27521064  .00000020  00000-0  75656-4 0  9996
2 32953  82.5006 100.2520 0019434 335.7401  24.2765 12.43091026511202
PRISM (HITOMI)
1 33493U 09002B   19240.79666674  .00000626  00000-0  60305-4 0  9992
2 33493  98.1197 164.4465 0014013 311.7885  48.2137 14.96706436575784
KKS-1 (KISEKI)
1 33499U 09002H   19241.42469574  .00000053  00000-0  15880-4 0  9991
2 33499  98.3464  82.4064 0008843 346.6183  13.4789 14.75457356569809
SWISSCUBE
1 35932U 09051B   19240.91540278 +.00000079 +00000-0 +28971-4 0  9996
2 35932 098.5949 049.0005 0006677 313.5411 046.5231 14.56303274527101
BEESAT
1 35933U 09051C   19241.05148439  .00000069  00000-0  26620-4 0  9994
2 35933  98.5972  50.9301 0005117 330.5295  29.5612 14.56390146527271
ITUPSAT 1
1 35935U 09051E   19241.15035373  .00000053  00000-0  23441-4 0  9990
2 35935  98.6081  51.2647 0007348 324.2871  35.7833 14.55547540527039
XIWANG-1 (HOPE-1)
1 36122U 09072B   19240.72408974 -.00000040 +00000-0 +53271-5 0  9997
2 36122 100.0745 239.7699 0006979 178.8996 181.2133 13.16350709466221
TISAT 1
1 36799U 10035E   19241.41707195  .00000070  00000-0  13209-4 0  9990
2 36799  98.1648  35.9866 0011689 204.8280 155.2376 14.91140486495452
JUGNU
1 37839U 11058B   19241.22040681  .00000319  00000-0  28114-4 0  9998
2 37839  19.9606 261.0204 0019049  36.1363  36.0154 14.12656708407384
SRMSAT
1 37841U 11058D   19241.44740059  .00000316  00000-0  28395-4 0  9999
2 37841  19.9727 317.9042 0011690 265.4285 189.2807 14.10637308406834
M-CUBED/EXP-1 PRIME
1 37855U 11061F   19241.04381946  .00000340  00000-0  25324-4 0  9996
2 37855 101.7100 173.2644 0173000 225.2459 133.4566 15.05545280427519
HORYU 2
1 38340U 12025D   19241.10842581  .00000101  00000-0  22846-4 0  9992
2 38340  98.3240 281.8220 0010218 254.6596 105.3483 14.75741007391696
STRAND 1
1 39090U 13009E   19240.83298505 +.00000027 +00000-0 +24738-4 0  9997
2 39090 098.4828 085.5780 0010388 078.7682 281.4671 14.35094546340572
SOMP
1 39134U 13015E   19240.93395924 +.00000654 +00000-0 +39084-4 0  9993
2 39134 064.8633 149.6075 0034811 291.6105 068.1315 15.20271705351042
BEESAT 3
1 39135U 13015F   19240.91688079 +.00000536 +00000-0 +36283-4 0  9995
2 39135 064.8693 168.9688 0030898 304.8195 055.0025 15.17560838350664
BEESAT 2
1 39136U 13015G   19241.17871413  .00000577  00000-0  38970-4 0  9991
2 39136  64.8683 172.1509 0022991 304.6270  55.2687 15.16976598351019
CUBEBUG 1
1 39153U 13018D   19241.26528374  .00000090  00000-0  18726-4 0  9995
2 39153  97.9804 338.9959 0016136 330.8343  29.1966 14.80586445342408
ZACUBE
1 39417U 13066B   19240.91084838 +.00000120 +00000-0 +21454-4 0  9990
2 39417 097.5626 250.4105 0059511 159.0710 201.2960 14.81138904311589
TRITON 1
1 39427U 13066M   19240.89519481 +.00000151 +00000-0 +32315-4 0  9997
2 39427 097.6831 213.8983 0112501 297.9456 061.0397 14.67869522308598
GOMX 1
1 39430U 13066Q   19241.41453829  .00000142  00000-0  34564-4 0  9991
2 39430  97.7517 193.2641 0151979  28.5427 332.3990 14.59274687307061
HUMSAT D
1 39433U 13066T   19240.69352613  .00000206  00000-0  25306-4 0  9997
2 39433  97.5481 285.2768 0032184  65.2879 295.1685 14.92232863313666
CUBEBUG 2
1 39440U 13066AA  19241.41377184  .00000115  00000-0  23041-4 0  9999
2 39440  97.6057 235.6290 0079358 211.0565 148.5942 14.75877217310551
FUNCUBE 1
1 39444U 13066AE  19240.93953652 +.00000171 +00000-0 +27310-4 0  9994
2 39444 097.5603 252.4518 0058784 152.5734 207.8603 14.81962547309894
UWE-3
1 39446U 13066AG  19240.88906546  .00000131  00000-0  24067-4 0  9992
2 39446  97.5833 242.2333 0069811 186.4572 173.5748 14.78411790309784
SPROUT
1 39770U 14029E   19241.27844536  .00000466  00000-0  57595-4 0  9999
2 39770  97.8874 344.1214 0008207 202.0719 158.0139 14.87398167285475
UNISAT 6
1 40012U 14033C   19240.88635386 +.00000116 +00000-0 +24781-4 0  9995
2 40012 097.7482 104.3984 0057134 227.3156 132.3233 14.73998698279178
DUCHIFAT 1
1 40021U 14033M   19240.76499750 +.00000143 +00000-0 +20423-4 0  9994
2 40021 097.9225 165.5931 0012931 169.3259 190.8235 14.90665249282134
QB50P1
1 40025U 14033R   19240.73314853  .00000173  00000-0  24444-4 0  9995
2 40025  97.9032 160.2979 0012253 179.2511 180.8726 14.88970147281895
CHUBUSAT 1
1 40300U 14070C   19241.37727821  .00000422  00000-0  21322-4 0  9995
2 40300  97.3233 313.7359 0020059 159.9214 258.2588 15.22142178266920
NUDT-PHONESAT
1 40900U 15049B   19241.39908574  .00001194  00000-0  53807-4 0  9996
2 40900  97.4380 250.0349 0011235 298.8727 169.2564 15.22961650218577
ZDPS 2A
1 40901U 15049C   19241.41583071  .00000661  00000-0  36005-4 0  9990
2 40901  97.4612 246.2062 0012292 319.7686 179.1012 15.17799210218119
ZDPS 2B
1 40902U 15049D   19241.45338581  .00000556  00000-0  30942-4 0  9996
2 40902  97.4551 243.6848 0012234 316.3222 204.8516 15.17637595218099
XW-2A
1 40903U 15049E   19241.28889382  .00001041  00000-0  26393-4 0  9993
2 40903  97.3328 284.4417 0011959 243.4647 178.3417 15.42017066221283
KAITUO 1A
1 40904U 15049F   19241.31244929  .00000287  00000-0  18701-4 0  9995
2 40904  97.4690 242.0999 0013596 325.3770 130.1999 15.15406323217844
OBJECT G
1 40905U 15049G   19241.45449542  .00000191  00000-0  13971-4 0  9997
2 40905  97.4729 239.7176 0014517 319.4185 195.7650 15.14326613217737
XW-2C
1 40906U 15049H   19241.36672616  .00000108  00000-0  91531-5 0  9995
2 40906  97.4692 242.2638 0013668 316.2143 151.0382 15.15724834217852
XW-2D
1 40907U 15049J   19241.27232782  .00000555  00000-0  32407-4 0  9994
2 40907  97.4682 241.8511 0012774 313.7555 169.5925 15.15919846217859
LILACSAT 2
1 40908U 15049K   19241.45648863  .00000091  00000-0  86698-5 0  9993
2 40908  97.4803 240.7914 0014922 319.6207 195.9435 15.13832915217663
XW-2F
1 40910U 15049M   19241.23330450  .00000377  00000-0  22227-4 0  9996
2 40910  97.4643 243.9122 0013314 305.8844 183.5212 15.17376722217863
XW-2B
1 40911U 15049N   19241.44698424  .00000163  00000-0  12005-4 0  9994
2 40911  97.4691 242.6835 0012913 314.1415 205.5278 15.15846335217772
KAITUO 1B
1 40912U 15049P   19241.33943383  .00000735  00000-0  37605-4 0  9998
2 40912  97.4505 247.7681 0013197 284.2968 131.4008 15.19701394218191
TIANWANG 1C (TW-1C)
1 40926U 15051B   19241.14670199  .00008456  00000-0  11911-3 0  9996
2 40926  97.1311 287.2590 0009822 106.6158 317.2165 15.56826994221270
TIANWANG 1B (TW-1B)
1 40927U 15051C   19241.37171590  .00007883  00000-0  11806-3 0  9999
2 40927  97.1336 286.7095 0009964 114.7042 306.7894 15.55177856221155
